Location: Observatoire
(46.1952°N, 5.3391°E)
Time: 07:08:52
(UTC+01:00)

Tiros 1 despin weight - Pass Details

Date: 24 February 2026
Orbit: 556 x 593 km, 48.2° (Epoch: 13 March)

Event Time Altitude Azimuth Distance (km) Brightness Sun altitude
Rises 13:20:25 0° 230° (SW) 2,754 ? 34.1°
Reaches altitude 10° 13:22:45 10° 224° (SW) 1,853 ? 34.0°
Maximum altitude 13:26:48 46° 151° (SSE) 755 ? 33.9°
Drops below altitude 10° 13:30:50 10° 78° (ENE) 1,843 ? 33.8°
Sets 13:33:08 0° 72° (ENE) 2,737 ? 33.7°
